Location: Peach Mountain Observatory
(42.3967°N, 83.9367°W)
Time: 18:53:20
(UTC-05:00)

A-11 Canister half - Visible Passes

Search period start: 22 January 2020 00:00
Search period end: 01 February 2020 00:00
Orbit: 1517 x 1683 km, 47.2° (Epoch: 22 January)

Date Brightness Start Highest point End Pass type
(mag) Time Alt. Az. Time Alt. Az. Time Alt. Az.
22 Jan 10.4 03:05:52 27° ENE 03:05:52 27° ENE 03:09:26 10° ENE visible
22 Jan 8.9 05:04:03 59° NW 05:05:51 71° NNE 05:15:11 10° E visible
22 Jan 9.1 07:02:15 12° WNW 07:10:47 64° SW 07:20:03 10° SE visible
23 Jan 10.7 02:44:12 20° ENE 02:44:12 20° ENE 02:46:30 10° ENE visible
23 Jan 8.9 04:42:24 69° N 04:42:54 70° NNE 04:52:13 10° E visible
23 Jan 9.1 06:40:35 18° WNW 06:47:54 67° SW 06:57:12 10° SE visible
24 Jan 11.0 02:22:34 14° ENE 02:22:34 14° ENE 02:23:34 10° ENE visible
24 Jan 9.0 04:20:46 66° NE 04:20:46 66° NE 04:29:15 10° E visible
24 Jan 9.0 06:18:58 24° WNW 06:25:02 70° SSW 06:34:20 10° SE visible
25 Jan 9.4 03:59:10 54° ENE 03:59:10 54° ENE 04:06:17 10° E visible
25 Jan 8.9 05:57:21 33° WNW 06:02:09 73° SSW 06:11:28 10° SE visible
26 Jan 9.8 03:37:35 42° ENE 03:37:35 42° ENE 03:43:19 10° E visible
26 Jan 8.8 05:35:48 44° WNW 05:39:15 76° SSW 05:48:36 10° SE visible
27 Jan 10.2 03:16:03 31° E 03:16:03 31° E 03:20:21 10° E visible
27 Jan 8.8 05:14:15 58° W 05:16:22 79° SSW 05:25:42 10° SE visible
27 Jan 9.9 07:12:45 10° WNW 07:20:17 29° SW 07:27:55 10° S visible
28 Jan 10.6 02:54:33 23° E 02:54:33 23° E 02:57:24 10° E visible
28 Jan 8.7 04:52:46 77° W 04:53:29 82° SSW 05:02:48 10° ESE visible
28 Jan 9.8 06:50:59 14° W 06:57:27 31° SW 07:05:17 10° S visible
29 Jan 10.9 02:33:07 15° E 02:33:07 15° E 02:34:26 10° E visible
29 Jan 8.8 04:31:20 78° SE 04:31:20 78° SE 04:39:54 10° ESE visible
29 Jan 9.7 06:29:33 20° W 06:34:38 33° SW 06:42:38 10° SSE visible
29 Jan 10.9 21:43:26 10° SSW 21:44:18 13° SSW 21:44:18 13° SSW visible
30 Jan 9.2 04:09:57 58° ESE 04:09:57 58° ESE 04:17:00 10° ESE visible
30 Jan 9.6 06:08:10 26° W 06:11:48 35° SW 06:19:57 10° SSE visible
30 Jan 10.5 21:20:40 10° SSW 21:23:17 20° SSW 21:23:17 20° SSW visible
31 Jan 9.7 03:48:37 41° ESE 03:48:37 41° ESE 03:54:05 10° ESE visible
31 Jan 9.4 05:46:50 34° WSW 05:48:59 37° SW 05:57:17 10° SSE visible
31 Jan 10.1 20:57:55 10° SSW 21:02:17 26° S 21:02:17 26° S visible
